Time,TemperatureF,DewpointF,PressureIn,WindDirection,WindDirectionDegrees,WindSpeedMPH,WindSpeedGustMPH,Humidity,HourlyPrecipIn,Conditions,Clouds,dailyrainin,SoftwareType,DateUTC
2013-06-03 00:03:00,63.6,60.4,30.11,WNW,293,0.0,0.0,89,0.00,,,0.00,WUHU216HW,2013-06-03 04:03:00,
2013-06-03 00:08:00,63.6,60.8,30.11,WNW,293,0.0,0.0,90,0.00,,,0.00,WUHU216HW,2013-06-03 04:08:00,
2013-06-03 00:13:00,63.6,60.8,30.11,WNW,293,0.0,0.0,90,0.00,,,0.00,WUHU216HW,2013-06-03 04:13:00,
2013-06-03 00:18:00,63.6,60.8,30.11,WNW,293,0.0,0.0,90,0.00,,,0.00,WUHU216HW,2013-06-03 04:18:00,
2013-06-03 00:23:00,63.6,60.8,30.11,WNW,293,0.0,0.0,90,0.00,,,0.00,WUHU216HW,2013-06-03 04:23:00,
2013-06-03 00:28:00,63.6,60.8,30.11,WNW,293,0.0,0.0,90,0.00,,,0.00,WUHU216HW,2013-06-03 04:28:00,
2013-06-03 00:33:00,63.8,60.9,30.11,WNW,293,0.0,0.0,90,0.00,,,0.00,WUHU216HW,2013-06-03 04:33:00,
2013-06-03 00:38:00,63.8,60.9,30.11,WNW,293,0.0,0.0,90,0.00,,,0.00,WUHU216HW,2013-06-03 04:38:00,
2013-06-03 00:43:00,64.0,61.1,30.11,WNW,293,0.0,0.0,90,0.00,,,0.00,WUHU216HW,2013-06-03 04:43:00,
2013-06-03 00:48:00,64.0,61.1,30.11,WNW,293,0.0,0.0,90,0.00,,,0.00,WUHU216HW,2013-06-03 04:48:00,
2013-06-03 00:53:00,64.0,61.1,30.11,WNW,293,0.0,0.0,90,0.00,,,0.00,WUHU216HW,2013-06-03 04:53:00,
2013-06-03 00:58:00,64.0,61.1,30.11,WNW,293,0.0,0.0,90,0.00,,,0.00,WUHU216HW,2013-06-03 04:58:00,
2013-06-03 01:03:00,64.0,61.1,30.11,WNW,293,0.0,0.0,90,0.00,,,0.00,WUHU216HW,2013-06-03 05:03:00,
2013-06-03 01:15:00,64.0,61.1,30.11,WNW,293,0.0,0.0,90,0.00,,,0.00,WUHU216HW,2013-06-03 05:15:00,
2013-06-03 01:20:00,64.0,61.1,30.11,WNW,293,0.0,0.0,90,0.00,,,0.00,WUHU216HW,2013-06-03 05:20:00,
2013-06-03 01:25:00,64.0,61.1,30.11,WNW,293,0.0,0.0,90,0.00,,,0.00,WUHU216HW,2013-06-03 05:25:00,
2013-06-03 01:30:00,64.0,61.1,30.11,WNW,293,0.0,0.0,90,0.00,,,0.00,WUHU216HW,2013-06-03 05:30:00,
2013-06-03 01:35:00,64.2,61.3,30.11,WNW,293,0.0,0.0,90,0.00,,,0.00,WUHU216HW,2013-06-03 05:35:00,
2013-06-03 01:40:00,64.2,61.3,30.11,WNW,293,0.0,0.0,90,0.00,,,0.00,WUHU216HW,2013-06-03 05:40:00,
2013-06-03 01:45:00,64.2,61.3,30.11,WNW,293,0.0,0.0,90,0.00,,,0.00,WUHU216HW,2013-06-03 05:45:00,
2013-06-03 01:50:00,64.2,61.3,30.11,WNW,293,0.0,0.0,90,0.00,,,0.00,WUHU216HW,2013-06-03 05:50:00,
2013-06-03 01:55:00,64.2,61.3,30.11,WNW,293,0.0,0.0,90,0.00,,,0.00,WUHU216HW,2013-06-03 05:55:00,
2013-06-03 02:00:00,64.2,61.3,30.11,WNW,293,0.0,0.0,90,0.00,,,0.00,WUHU216HW,2013-06-03 06:00:00,
2013-06-03 02:05:00,64.2,61.3,30.11,WNW,293,0.0,0.0,90,0.00,,,0.00,WUHU216HW,2013-06-03 06:05:00,
2013-06-03 02:10:00,64.2,61.3,30.11,WNW,293,0.0,0.0,90,0.00,,,0.00,WUHU216HW,2013-06-03 06:10:00,
2013-06-03 02:15:00,64.2,61.3,30.11,WNW,293,0.0,0.0,90,0.00,,,0.00,WUHU216HW,2013-06-03 06:15:00,
2013-06-03 02:20:00,64.2,61.3,30.11,WNW,293,0.0,0.0,90,0.00,,,0.00,WUHU216HW,2013-06-03 06:20:00,
2013-06-03 02:25:00,64.2,61.3,30.11,WNW,293,0.0,0.0,90,0.00,,,0.00,WUHU216HW,2013-06-03 06:25:00,
2013-06-03 02:30:00,64.0,61.1,30.11,WNW,293,0.0,0.0,90,0.00,,,0.00,WUHU216HW,2013-06-03 06:30:00,
2013-06-03 02:35:00,64.0,61.1,30.11,WNW,293,0.0,0.0,90,0.00,,,0.00,WUHU216HW,2013-06-03 06:35:00,
2013-06-03 02:40:00,64.0,61.1,30.11,WNW,293,0.0,0.0,90,0.00,,,0.00,WUHU216HW,2013-06-03 06:40:00,
2013-06-03 02:45:00,64.0,61.1,30.11,WNW,293,0.0,0.0,90,0.00,,,0.00,WUHU216HW,2013-06-03 06:45:00,
2013-06-03 02:50:00,64.0,61.1,30.11,WNW,293,0.0,0.0,90,0.00,,,0.00,WUHU216HW,2013-06-03 06:50:00,
2013-06-03 02:55:00,64.0,61.1,30.11,WNW,293,0.0,0.0,90,0.00,,,0.00,WUHU216HW,2013-06-03 06:55:00,
2013-06-03 03:00:00,64.0,61.1,30.10,WNW,293,0.0,0.0,90,0.00,,,0.00,WUHU216HW,2013-06-03 07:00:00,
2013-06-03 03:05:00,64.0,61.1,30.11,WNW,293,0.0,0.0,90,0.00,,,0.00,WUHU216HW,2013-06-03 07:05:00,
2013-06-03 03:10:00,64.0,61.4,30.10,SSW,203,0.0,0.0,91,0.00,,,0.00,WUHU216HW,2013-06-03 07:10:00,
2013-06-03 03:15:00,64.0,61.4,30.10,SSW,203,0.0,0.0,91,0.00,,,0.00,WUHU216HW,2013-06-03 07:15:00,
2013-06-03 03:20:00,63.8,60.9,30.10,SSW,203,0.0,0.0,90,0.00,,,0.00,WUHU216HW,2013-06-03 07:20:00,
2013-06-03 03:25:00,63.8,61.2,30.09,SSW,203,0.0,0.0,91,0.00,,,0.00,WUHU216HW,2013-06-03 07:25:00,
2013-06-03 03:30:00,63.8,60.9,30.09,SSW,203,0.0,0.0,90,0.00,,,0.00,WUHU216HW,2013-06-03 07:30:00,
2013-06-03 03:35:00,63.8,60.9,30.09,SSW,203,0.0,0.0,90,0.00,,,0.00,WUHU216HW,2013-06-03 07:35:00,
2013-06-03 03:40:00,63.6,60.8,30.09,SSW,203,0.0,0.0,90,0.00,,,0.00,WUHU216HW,2013-06-03 07:40:00,
2013-06-03 03:45:00,63.6,60.8,30.09,SSW,203,0.0,0.0,90,0.00,,,0.00,WUHU216HW,2013-06-03 07:45:00,
2013-06-03 03:50:00,63.6,61.0,30.09,SSW,203,0.0,0.0,91,0.00,,,0.00,WUHU216HW,2013-06-03 07:50:00,
2013-06-03 03:55:00,63.6,61.0,30.08,SSW,203,0.0,0.0,91,0.00,,,0.00,WUHU216HW,2013-06-03 07:55:00,
2013-06-03 04:00:00,63.6,61.0,30.08,SSW,203,0.0,0.0,91,0.00,,,0.00,WUHU216HW,2013-06-03 08:00:00,
2013-06-03 04:05:00,63.6,61.0,30.08,SSW,203,0.0,0.0,91,0.00,,,0.00,WUHU216HW,2013-06-03 08:05:00,
2013-06-03 04:10:00,63.6,61.0,30.08,SSW,203,0.0,0.0,91,0.00,,,0.00,WUHU216HW,2013-06-03 08:10:00,
2013-06-03 04:15:00,63.6,61.0,30.08,SSW,203,0.0,0.0,91,0.00,,,0.00,WUHU216HW,2013-06-03 08:15:00,
2013-06-03 04:20:00,63.6,61.0,30.08,SSW,203,0.0,0.0,91,0.00,,,0.00,WUHU216HW,2013-06-03 08:20:00,
2013-06-03 04:25:00,63.5,60.9,30.08,SSW,203,0.0,0.0,91,0.00,,,0.00,WUHU216HW,2013-06-03 08:25:00,
2013-06-03 04:30:00,63.5,60.9,30.08,SSW,203,0.0,0.0,91,0.00,,,0.00,WUHU216HW,2013-06-03 08:30:00,
2013-06-03 04:35:00,63.5,60.9,30.08,SSW,203,0.0,0.0,91,0.00,,,0.00,WUHU216HW,2013-06-03 08:35:00,
2013-06-03 04:40:00,63.5,60.9,30.08,SSW,203,0.0,0.0,91,0.00,,,0.00,WUHU216HW,2013-06-03 08:40:00,
2013-06-03 04:45:00,63.5,60.9,30.08,SSW,203,0.0,0.0,91,0.00,,,0.00,WUHU216HW,2013-06-03 08:45:00,
2013-06-03 04:50:00,63.5,60.9,30.08,SSW,203,0.0,0.0,91,0.00,,,0.00,WUHU216HW,2013-06-03 08:50:00,
2013-06-03 04:55:00,63.3,60.4,30.08,SSW,203,0.0,0.0,90,0.00,,,0.00,WUHU216HW,2013-06-03 08:55:00,
2013-06-03 05:00:00,63.3,60.4,30.08,SSW,203,0.0,0.0,90,0.00,,,0.00,WUHU216HW,2013-06-03 09:00:00,
2013-06-03 05:05:00,63.3,60.7,30.09,SSW,203,0.0,0.0,91,0.00,,,0.00,WUHU216HW,2013-06-03 09:05:00,
2013-06-03 05:10:00,63.3,60.7,30.08,SSW,203,0.0,0.0,91,0.00,,,0.00,WUHU216HW,2013-06-03 09:10:00,
2013-06-03 05:15:00,63.3,60.7,30.09,SSW,203,0.0,0.0,91,0.00,,,0.00,WUHU216HW,2013-06-03 09:15:00,
2013-06-03 05:20:00,63.3,60.7,30.09,SSW,203,0.0,0.0,91,0.00,,,0.00,WUHU216HW,2013-06-03 09:20:00,
2013-06-03 05:25:00,63.3,60.7,30.08,SSW,203,0.0,0.0,91,0.00,,,0.00,WUHU216HW,2013-06-03 09:25:00,
2013-06-03 05:30:00,63.3,60.7,30.09,SSW,203,0.0,0.0,91,0.00,,,0.00,WUHU216HW,2013-06-03 09:30:00,
2013-06-03 05:35:00,63.3,60.7,30.09,SSW,203,0.0,0.0,91,0.00,,,0.00,WUHU216HW,2013-06-03 09:35:00,
2013-06-03 05:40:00,63.3,60.7,30.09,SSW,203,0.0,0.0,91,0.00,,,0.00,WUHU216HW,2013-06-03 09:40:00,
2013-06-03 05:45:00,63.3,60.7,30.09,SSW,203,0.0,0.0,91,0.00,,,0.00,WUHU216HW,2013-06-03 09:45:00,
2013-06-03 05:50:00,63.3,60.7,30.09,SSW,203,0.0,0.0,91,0.00,,,0.00,WUHU216HW,2013-06-03 09:50:00,
2013-06-03 05:55:00,63.3,60.7,30.09,SSW,203,0.0,0.0,91,0.00,,,0.00,WUHU216HW,2013-06-03 09:55:00,
2013-06-03 06:00:00,63.3,60.7,30.09,SSW,203,0.0,0.0,91,0.00,,,0.00,WUHU216HW,2013-06-03 10:00:00,
2013-06-03 06:05:00,63.3,60.7,30.09,SSW,203,0.0,0.0,91,0.00,,,0.00,WUHU216HW,2013-06-03 10:05:00,
2013-06-03 06:10:00,63.5,60.9,30.10,SSW,203,0.0,0.0,91,0.00,,,0.00,WUHU216HW,2013-06-03 10:10:00,
2013-06-03 06:15:00,63.5,60.9,30.10,SSW,203,0.0,0.0,91,0.00,,,0.00,WUHU216HW,2013-06-03 10:15:00,
2013-06-03 06:20:00,63.5,60.9,30.10,SSW,203,0.0,0.0,91,0.00,,,0.00,WUHU216HW,2013-06-03 10:20:00,
2013-06-03 06:25:00,63.5,60.9,30.10,SSW,203,0.0,0.0,91,0.00,,,0.00,WUHU216HW,2013-06-03 10:25:00,
2013-06-03 06:30:00,63.5,60.9,30.10,SSW,203,0.0,0.0,91,0.00,,,0.00,WUHU216HW,2013-06-03 10:30:00,
2013-06-03 06:35:00,63.5,60.9,30.10,SSW,203,0.0,0.0,91,0.00,,,0.00,WUHU216HW,2013-06-03 10:35:00,
2013-06-03 06:40:00,63.5,60.9,30.10,SSW,203,0.0,0.0,91,0.00,,,0.00,WUHU216HW,2013-06-03 10:40:00,
2013-06-03 06:45:00,63.5,60.9,30.10,SSW,203,0.0,0.0,91,0.00,,,0.00,WUHU216HW,2013-06-03 10:45:00,
2013-06-03 06:50:00,63.5,60.9,30.11,SSW,203,0.0,0.0,91,0.00,,,0.00,WUHU216HW,2013-06-03 10:50:00,
2013-06-03 06:55:00,63.5,60.9,30.11,SSW,203,0.0,0.0,91,0.00,,,0.00,WUHU216HW,2013-06-03 10:55:00,
2013-06-03 07:01:00,63.5,60.9,30.11,SSW,203,0.0,0.0,91,0.00,,,0.00,WUHU216HW,2013-06-03 11:01:00,
2013-06-03 07:06:00,63.6,61.0,30.11,SSW,203,0.0,0.0,91,0.00,,,0.00,WUHU216HW,2013-06-03 11:06:00,
2013-06-03 07:11:00,63.6,61.0,30.10,SSW,203,0.0,0.0,91,0.00,,,0.00,WUHU216HW,2013-06-03 11:11:00,
2013-06-03 07:16:00,63.6,61.0,30.11,SSW,203,0.0,0.0,91,0.00,,,0.00,WUHU216HW,2013-06-03 11:16:00,
2013-06-03 07:21:00,63.6,61.0,30.11,SSW,203,0.0,0.0,91,0.00,,,0.00,WUHU216HW,2013-06-03 11:21:00,
2013-06-03 07:26:00,63.6,61.0,30.11,SSW,203,0.0,0.0,91,0.00,,,0.00,WUHU216HW,2013-06-03 11:26:00,
2013-06-03 07:31:00,63.6,61.0,30.11,SSW,203,0.0,0.0,91,0.00,,,0.00,WUHU216HW,2013-06-03 11:31:00,
2013-06-03 07:36:00,63.8,61.2,30.11,SSW,203,0.0,0.0,91,0.00,,,0.00,WUHU216HW,2013-06-03 11:36:00,
2013-06-03 07:41:00,63.6,61.0,30.11,SSW,203,0.0,0.0,91,0.00,,,0.00,WUHU216HW,2013-06-03 11:41:00,
2013-06-03 07:46:00,64.0,61.4,30.11,SSW,203,0.0,0.0,91,0.00,,,0.00,WUHU216HW,2013-06-03 11:46:00,
2013-06-03 07:51:00,64.0,61.4,30.11,SSW,203,0.0,0.0,91,0.00,,,0.00,WUHU216HW,2013-06-03 11:51:00,
2013-06-03 07:56:00,64.0,61.4,30.11,SSW,203,0.0,0.0,91,0.00,,,0.00,WUHU216HW,2013-06-03 11:56:00,
2013-06-03 08:01:00,64.0,61.4,30.11,SSW,203,0.0,0.0,91,0.00,,,0.00,WUHU216HW,2013-06-03 12:01:00,
2013-06-03 08:06:00,64.0,61.4,30.11,SSW,203,0.0,0.0,91,0.00,,,0.00,WUHU216HW,2013-06-03 12:06:00,
2013-06-03 08:11:00,64.0,61.4,30.11,SSW,203,0.0,0.0,91,0.00,,,0.00,WUHU216HW,2013-06-03 12:11:00,
2013-06-03 08:16:00,64.0,61.4,30.11,SSW,203,0.0,0.0,91,0.00,,,0.00,WUHU216HW,2013-06-03 12:16:00,
2013-06-03 08:21:00,64.2,61.6,30.12,SSW,203,0.0,0.0,91,0.00,,,0.00,WUHU216HW,2013-06-03 12:21:00,
2013-06-03 08:26:00,64.2,61.6,30.12,SSW,203,0.0,0.0,91,0.00,,,0.00,WUHU216HW,2013-06-03 12:26:00,
2013-06-03 08:31:00,64.2,61.9,30.12,SSW,203,0.0,0.0,92,0.00,,,0.00,WUHU216HW,2013-06-03 12:31:00,
2013-06-03 08:36:00,64.2,61.9,30.13,SSW,203,0.0,0.0,92,0.00,,,0.00,WUHU216HW,2013-06-03 12:36:00,
2013-06-03 08:41:00,64.5,62.2,30.13,SSW,203,0.0,0.0,92,0.00,,,0.00,WUHU216HW,2013-06-03 12:41:00,
2013-06-03 08:46:00,64.5,62.2,30.13,SSW,203,0.0,0.0,92,0.00,,,0.00,WUHU216HW,2013-06-03 12:46:00,
2013-06-03 08:51:00,64.5,62.2,30.13,SSW,203,0.0,0.0,92,0.00,,,0.00,WUHU216HW,2013-06-03 12:51:00,
2013-06-03 08:56:00,64.5,62.2,30.13,North,0,0.0,0.0,92,0.00,,,0.00,WUHU216HW,2013-06-03 12:56:00,
2013-06-03 09:01:00,64.9,62.5,30.13,North,0,0.0,0.0,92,0.00,,,0.00,WUHU216HW,2013-06-03 13:01:00,
2013-06-03 09:06:00,65.1,62.7,30.13,North,0,0.0,0.0,92,0.00,,,0.00,WUHU216HW,2013-06-03 13:06:00,
2013-06-03 09:11:00,65.1,62.7,30.12,North,0,0.0,0.0,92,0.00,,,0.00,WUHU216HW,2013-06-03 13:11:00,
2013-06-03 09:16:00,65.1,62.7,30.12,North,0,0.0,0.0,92,0.00,,,0.00,WUHU216HW,2013-06-03 13:16:00,
2013-06-03 09:21:00,65.3,62.9,30.12,North,0,0.0,0.0,92,0.00,,,0.00,WUHU216HW,2013-06-03 13:21:00,
2013-06-03 09:26:00,65.4,63.2,30.12,North,0,0.0,0.0,92,0.00,,,0.00,WUHU216HW,2013-06-03 13:26:00,
2013-06-03 09:31:00,65.8,63.4,30.12,North,0,0.0,0.0,92,0.00,,,0.00,WUHU216HW,2013-06-03 13:31:00,
2013-06-03 09:36:00,66.0,63.5,30.12,NNW,338,0.0,0.0,92,0.00,,,0.00,WUHU216HW,2013-06-03 13:36:00,
2013-06-03 09:41:00,66.0,63.5,30.13,NNW,338,0.0,0.0,92,0.00,,,0.00,WUHU216HW,2013-06-03 13:41:00,
2013-06-03 09:46:00,66.3,63.9,30.13,NNW,338,0.0,0.0,92,0.00,,,0.00,WUHU216HW,2013-06-03 13:46:00,
2013-06-03 09:51:00,66.3,63.6,30.13,NNW,338,0.0,0.0,91,0.00,,,0.00,WUHU216HW,2013-06-03 13:51:00,
2013-06-03 09:57:00,66.3,63.6,30.13,NNW,338,0.0,0.0,91,0.00,,,0.00,WUHU216HW,2013-06-03 13:57:00,
2013-06-03 10:02:00,66.5,63.8,30.13,NW,315,0.0,0.0,91,0.00,,,0.00,WUHU216HW,2013-06-03 14:02:00,
2013-06-03 10:07:00,66.5,63.8,30.13,NW,315,0.0,0.0,91,0.00,,,0.00,WUHU216HW,2013-06-03 14:07:00,
2013-06-03 10:12:00,66.7,63.9,30.13,NW,315,0.0,0.0,91,0.00,,,0.00,WUHU216HW,2013-06-03 14:12:00,
2013-06-03 10:17:00,66.7,63.9,30.13,NW,315,0.0,0.0,91,0.00,,,0.00,WUHU216HW,2013-06-03 14:17:00,
2013-06-03 10:22:00,66.9,64.1,30.13,NW,315,0.0,0.0,91,0.00,,,0.00,WUHU216HW,2013-06-03 14:22:00,
2013-06-03 10:27:00,66.9,64.1,30.13,NW,315,0.0,0.0,91,0.00,,,0.00,WUHU216HW,2013-06-03 14:27:00,
2013-06-03 10:32:00,67.1,64.3,30.13,NNW,338,0.0,0.0,91,0.00,,,0.00,WUHU216HW,2013-06-03 14:32:00,
2013-06-03 10:37:00,67.1,64.0,30.13,NNW,338,0.0,0.0,90,0.00,,,0.00,WUHU216HW,2013-06-03 14:37:00,
2013-06-03 10:42:00,67.2,64.2,30.13,West,270,0.0,0.0,90,0.00,,,0.00,WUHU216HW,2013-06-03 14:42:00,
2013-06-03 10:47:00,67.2,64.2,30.13,WNW,293,0.0,0.0,90,0.00,,,0.00,WUHU216HW,2013-06-03 14:47:00,
2013-06-03 10:52:00,67.6,64.5,30.13,WNW,293,0.0,0.0,90,0.00,,,0.00,WUHU216HW,2013-06-03 14:52:00,
2013-06-03 10:57:00,67.8,64.4,30.13,West,270,0.0,0.0,89,0.00,,,0.00,WUHU216HW,2013-06-03 14:57:00,
2013-06-03 11:02:00,67.8,64.1,30.13,NNW,338,0.0,0.0,88,0.00,,,0.00,WUHU216HW,2013-06-03 15:02:00,
2013-06-03 11:07:00,68.1,64.7,30.13,NNE,23,0.0,0.0,89,0.00,,,0.00,WUHU216HW,2013-06-03 15:07:00,
2013-06-03 11:12:00,68.1,64.4,30.13,NNW,338,0.0,0.0,88,0.00,,,0.00,WUHU216HW,2013-06-03 15:12:00,
2013-06-03 11:17:00,68.5,64.8,30.13,WNW,293,0.0,0.0,88,0.00,,,0.00,WUHU216HW,2013-06-03 15:17:00,
2013-06-03 11:22:00,68.7,64.6,30.14,North,0,0.0,2.2,87,0.00,,,0.00,WUHU216HW,2013-06-03 15:22:00,
2013-06-03 11:27:00,69.0,64.6,30.14,North,0,0.0,2.2,86,0.00,,,0.00,WUHU216HW,2013-06-03 15:27:00,
2013-06-03 11:32:00,69.6,65.1,30.13,North,0,0.0,0.0,86,0.00,,,0.00,WUHU216HW,2013-06-03 15:32:00,
2013-06-03 11:37:00,70.1,65.0,30.13,NNW,338,0.0,0.0,84,0.00,,,0.00,WUHU216HW,2013-06-03 15:37:00,
2013-06-03 11:42:00,70.5,65.4,30.13,NNW,338,0.0,0.0,84,0.00,,,0.00,WUHU216HW,2013-06-03 15:42:00,
2013-06-03 11:47:00,70.8,65.4,30.13,NW,315,0.0,0.0,83,0.00,,,0.00,WUHU216HW,2013-06-03 15:47:00,
2013-06-03 11:52:00,71.4,65.9,30.13,NNW,338,3.1,3.1,83,0.00,,,0.00,WUHU216HW,2013-06-03 15:52:00,
2013-06-03 11:57:00,71.7,65.6,30.13,West,270,0.0,3.1,81,0.00,,,0.00,WUHU216HW,2013-06-03 15:57:00,
2013-06-03 12:02:00,72.1,66.0,30.13,North,0,0.0,3.1,81,0.00,,,0.00,WUHU216HW,2013-06-03 16:02:00,
2013-06-03 12:07:00,72.6,66.0,30.13,NW,315,0.0,2.2,80,0.00,,,0.00,WUHU216HW,2013-06-03 16:07:00,
2013-06-03 12:12:00,73.2,65.9,30.13,North,0,0.0,2.2,78,0.00,,,0.00,WUHU216HW,2013-06-03 16:12:00,
2013-06-03 12:17:00,73.4,65.7,30.12,NNW,338,0.0,0.0,77,0.00,,,0.00,WUHU216HW,2013-06-03 16:17:00,
2013-06-03 12:22:00,73.9,65.9,30.12,WNW,293,0.0,0.0,76,0.00,,,0.00,WUHU216HW,2013-06-03 16:22:00,
2013-06-03 12:27:00,74.1,65.7,30.13,North,0,0.0,0.0,75,0.00,,,0.00,WUHU216HW,2013-06-03 16:27:00,
2013-06-03 12:32:00,74.1,65.3,30.13,NW,315,0.0,0.0,74,0.00,,,0.00,WUHU216HW,2013-06-03 16:32:00,
2013-06-03 12:37:00,74.6,65.4,30.13,SW,225,0.0,0.0,73,0.00,,,0.00,WUHU216HW,2013-06-03 16:37:00,
2013-06-03 12:42:00,75.0,65.3,30.13,West,270,0.0,0.0,72,0.00,,,0.00,WUHU216HW,2013-06-03 16:42:00,
2013-06-03 12:47:00,75.3,65.3,30.13,NNW,338,4.9,4.9,71,0.00,,,0.00,WUHU216HW,2013-06-03 16:47:00,
2013-06-03 12:52:00,75.5,65.4,30.13,NNW,338,3.8,4.9,71,0.00,,,0.00,WUHU216HW,2013-06-03 16:52:00,
2013-06-03 12:57:00,75.5,65.1,30.13,NW,315,3.8,3.8,70,0.00,,,0.00,WUHU216HW,2013-06-03 16:57:00,
2013-06-03 13:02:00,75.5,65.1,30.13,North,0,0.0,3.8,70,0.00,,,0.00,WUHU216HW,2013-06-03 17:02:00,
2013-06-03 13:07:00,75.9,65.0,30.12,West,270,0.0,3.8,69,0.00,,,0.00,WUHU216HW,2013-06-03 17:07:00,
2013-06-03 13:12:00,76.2,65.3,30.12,NW,315,0.0,0.0,69,0.00,,,0.00,WUHU216HW,2013-06-03 17:12:00,
2013-06-03 13:17:00,76.2,64.9,30.12,NNW,338,3.8,3.8,68,0.00,,,0.00,WUHU216HW,2013-06-03 17:17:00,
2013-06-03 13:22:00,76.6,65.3,30.12,NNW,338,0.0,3.8,68,0.00,,,0.00,WUHU216HW,2013-06-03 17:22:00,
2013-06-03 13:27:00,76.6,64.8,30.12,West,270,0.0,0.0,67,0.00,,,0.00,WUHU216HW,2013-06-03 17:27:00,
2013-06-03 13:32:00,76.8,64.5,30.12,NW,315,0.0,0.0,66,0.00,,,0.00,WUHU216HW,2013-06-03 17:32:00,
2013-06-03 13:37:00,76.8,64.5,30.12,NE,45,0.0,0.0,66,0.00,,,0.00,WUHU216HW,2013-06-03 17:37:00,
2013-06-03 13:42:00,77.1,65.3,30.12,WSW,248,0.0,0.0,67,0.00,,,0.00,WUHU216HW,2013-06-03 17:42:00,
2013-06-03 13:47:00,77.1,64.9,30.12,WSW,248,0.0,0.0,66,0.00,,,0.00,WUHU216HW,2013-06-03 17:47:00,
2013-06-03 13:52:00,77.5,65.2,30.11,WSW,248,0.0,0.0,66,0.00,,,0.00,WUHU216HW,2013-06-03 17:52:00,
2013-06-03 13:57:00,77.7,64.5,30.11,NW,315,0.0,0.0,64,0.00,,,0.00,WUHU216HW,2013-06-03 17:57:00,
2013-06-03 14:02:00,77.5,63.4,30.11,WSW,248,0.0,0.0,62,0.00,,,0.00,WUHU216HW,2013-06-03 18:02:00,
2013-06-03 14:07:00,77.5,63.9,30.11,WSW,248,0.0,0.0,63,0.00,,,0.00,WUHU216HW,2013-06-03 18:07:00,
2013-06-03 14:12:00,77.7,64.0,30.11,WSW,248,0.0,0.0,63,0.00,,,0.00,WUHU216HW,2013-06-03 18:12:00,
2013-06-03 14:17:00,78.0,64.0,30.11,WSW,248,0.0,0.0,62,0.00,,,0.00,WUHU216HW,2013-06-03 18:17:00,
2013-06-03 14:22:00,78.6,64.9,30.11,WSW,248,0.0,0.0,63,0.00,,,0.00,WUHU216HW,2013-06-03 18:22:00,
2013-06-03 14:27:00,78.6,64.9,30.11,WSW,248,0.0,0.0,62,0.00,,,0.00,WUHU216HW,2013-06-03 18:27:00,
2013-06-03 14:32:00,78.9,64.0,30.11,West,270,0.0,0.0,60,0.00,,,0.00,WUHU216HW,2013-06-03 18:32:00,
2013-06-03 14:37:00,78.6,63.1,30.10,NNW,338,0.0,2.9,59,0.00,,,0.00,WUHU216HW,2013-06-03 18:37:00,
2013-06-03 14:42:00,78.0,63.5,30.10,WSW,248,0.0,2.9,61,0.00,,,0.00,WUHU216HW,2013-06-03 18:42:00,
2013-06-03 14:47:00,77.9,62.9,30.10,WSW,248,0.0,0.0,60,0.00,,,0.00,WUHU216HW,2013-06-03 18:47:00,
2013-06-03 14:52:00,77.7,63.6,30.10,WSW,248,0.0,0.0,62,0.00,,,0.00,WUHU216HW,2013-06-03 18:52:00,
2013-06-03 14:57:00,78.0,63.1,30.10,WSW,248,3.8,3.8,60,0.00,,,0.00,WUHU216HW,2013-06-03 18:57:00,
2013-06-03 15:02:00,78.6,63.6,30.09,WSW,248,0.0,3.8,60,0.00,,,0.00,WUHU216HW,2013-06-03 19:02:00,
2013-06-03 15:07:00,78.6,62.6,30.09,WSW,248,0.0,3.8,58,0.00,,,0.00,WUHU216HW,2013-06-03 19:07:00,
2013-06-03 15:12:00,79.1,63.6,30.09,NNW,338,0.0,0.0,59,0.00,,,0.00,WUHU216HW,2013-06-03 19:12:00,
2013-06-03 15:17:00,79.1,63.1,30.09,West,270,0.0,5.3,58,0.00,,,0.00,WUHU216HW,2013-06-03 19:17:00,
2013-06-03 15:22:00,78.6,62.6,30.08,WSW,248,0.0,5.3,58,0.00,,,0.00,WUHU216HW,2013-06-03 19:22:00,
2013-06-03 15:27:00,78.9,62.9,30.08,WSW,248,0.0,0.0,58,0.00,,,0.00,WUHU216HW,2013-06-03 19:27:00,
2013-06-03 15:32:00,79.1,63.1,30.08,WSW,248,0.0,3.1,58,0.00,,,0.00,WUHU216HW,2013-06-03 19:32:00,
2013-06-03 15:37:00,79.7,64.6,30.08,WSW,248,0.0,3.1,60,0.00,,,0.00,WUHU216HW,2013-06-03 19:37:00,
2013-06-03 15:42:00,80.4,64.7,30.08,WSW,248,0.0,0.0,59,0.00,,,0.00,WUHU216HW,2013-06-03 19:42:00,
2013-06-03 15:47:00,80.7,64.5,30.08,WSW,248,0.0,0.0,58,0.00,,,0.00,WUHU216HW,2013-06-03 19:47:00,
2013-06-03 15:52:00,81.3,64.0,30.08,WSW,248,0.0,0.0,56,0.00,,,0.00,WUHU216HW,2013-06-03 19:52:00,
2013-06-03 15:57:00,81.3,64.0,30.08,WSW,248,0.0,0.0,56,0.00,,,0.00,WUHU216HW,2013-06-03 19:57:00,
2013-06-03 16:02:00,81.6,64.8,30.08,WSW,248,0.0,0.0,57,0.00,,,0.00,WUHU216HW,2013-06-03 20:02:00,
2013-06-03 16:07:00,82.2,64.3,30.08,WSW,248,0.0,0.2,55,0.00,,,0.00,WUHU216HW,2013-06-03 20:07:00,
2013-06-03 16:12:00,82.5,64.1,30.07,WSW,248,0.0,0.2,54,0.00,,,0.00,WUHU216HW,2013-06-03 20:12:00,
2013-06-03 16:18:00,82.5,62.5,30.08,WSW,248,0.0,0.0,51,0.00,,,0.00,WUHU216HW,2013-06-03 20:18:00,
2013-06-03 16:23:00,82.0,62.0,30.07,WSW,248,0.0,0.0,51,0.00,,,0.00,WUHU216HW,2013-06-03 20:23:00,
2013-06-03 16:28:00,81.6,62.2,30.08,WSW,248,0.0,0.0,52,0.00,,,0.00,WUHU216HW,2013-06-03 20:28:00,
2013-06-03 16:33:00,81.6,62.2,30.07,NNW,338,0.0,3.5,52,0.00,,,0.00,WUHU216HW,2013-06-03 20:33:00,
2013-06-03 16:38:00,81.1,61.7,30.08,WSW,248,0.0,5.3,52,0.00,,,0.00,WUHU216HW,2013-06-03 20:38:00,
2013-06-03 16:43:00,81.1,62.3,30.07,WSW,248,0.0,5.3,53,0.00,,,0.00,WUHU216HW,2013-06-03 20:43:00,
2013-06-03 16:48:00,81.3,62.9,30.07,WSW,248,1.1,1.1,54,0.00,,,0.00,WUHU216HW,2013-06-03 20:48:00,
2013-06-03 16:53:00,81.6,62.2,30.07,WSW,248,0.0,3.5,52,0.00,,,0.00,WUHU216HW,2013-06-03 20:53:00,
2013-06-03 16:58:00,81.3,61.9,30.08,WSW,248,0.0,3.5,52,0.00,,,0.00,WUHU216HW,2013-06-03 20:58:00,
2013-06-03 17:03:00,81.5,63.6,30.07,WSW,248,0.4,0.4,55,0.00,,,0.00,WUHU216HW,2013-06-03 21:03:00,
2013-06-03 17:08:00,81.8,62.9,30.07,WSW,248,0.0,0.4,53,0.00,,,0.00,WUHU216HW,2013-06-03 21:08:00,
2013-06-03 17:13:00,81.6,62.2,30.07,WSW,248,0.0,5.1,52,0.00,,,0.00,WUHU216HW,2013-06-03 21:13:00,
2013-06-03 17:18:00,81.6,61.7,30.07,WSW,248,0.0,5.1,51,0.00,,,0.00,WUHU216HW,2013-06-03 21:18:00,
2013-06-03 17:23:00,82.0,63.1,30.08,WSW,248,0.0,0.0,53,0.00,,,0.00,WUHU216HW,2013-06-03 21:23:00,
2013-06-03 17:28:00,82.0,62.6,30.07,WSW,248,0.0,2.2,52,0.00,,,0.00,WUHU216HW,2013-06-03 21:28:00,
2013-06-03 17:33:00,82.2,62.2,30.08,WSW,248,0.0,2.2,51,0.00,,,0.00,WUHU216HW,2013-06-03 21:33:00,
2013-06-03 17:38:00,82.2,62.7,30.07,WSW,248,0.0,0.0,52,0.00,,,0.00,WUHU216HW,2013-06-03 21:38:00,
2013-06-03 17:43:00,82.5,63.1,30.08,WSW,248,0.0,0.0,52,0.00,,,0.00,WUHU216HW,2013-06-03 21:43:00,
2013-06-03 17:48:00,82.5,63.6,30.07,WSW,248,0.0,0.0,53,0.00,,,0.00,WUHU216HW,2013-06-03 21:48:00,
2013-06-03 17:53:00,83.8,65.4,30.07,WSW,248,0.0,0.0,54,0.00,,,0.00,WUHU216HW,2013-06-03 21:53:00,
2013-06-03 17:58:00,84.3,64.8,30.07,WSW,248,0.0,0.0,52,0.00,,,0.00,WUHU216HW,2013-06-03 21:58:00,
2013-06-03 18:03:00,84.3,64.8,30.07,WSW,248,0.0,0.0,52,0.00,,,0.00,WUHU216HW,2013-06-03 22:03:00,
2013-06-03 18:08:00,84.3,64.8,30.07,WSW,248,0.0,0.0,52,0.00,,,0.00,WUHU216HW,2013-06-03 22:08:00,
2013-06-03 18:13:00,84.7,65.2,30.07,WSW,248,0.0,0.0,52,0.00,,,0.00,WUHU216HW,2013-06-03 22:13:00,
2013-06-03 18:18:00,84.9,64.3,30.07,WSW,248,0.0,0.0,50,0.00,,,0.00,WUHU216HW,2013-06-03 22:18:00,
2013-06-03 18:23:00,84.9,64.3,30.07,WSW,248,0.0,0.0,50,0.00,,,0.00,WUHU216HW,2013-06-03 22:23:00,
2013-06-03 18:28:00,84.7,63.5,30.07,WSW,248,0.8,0.8,49,0.00,,,0.00,WUHU216HW,2013-06-03 22:28:00,
2013-06-03 18:33:00,83.6,62.2,30.07,WSW,248,0.0,0.8,48,0.00,,,0.00,WUHU216HW,2013-06-03 22:33:00,
2013-06-03 18:38:00,83.3,62.1,30.07,WSW,248,0.0,0.8,49,0.00,,,0.00,WUHU216HW,2013-06-03 22:38:00,
2013-06-03 18:43:00,83.4,62.9,30.08,WSW,248,0.0,0.0,50,0.00,,,0.00,WUHU216HW,2013-06-03 22:43:00,
2013-06-03 18:48:00,83.4,62.3,30.07,WSW,248,0.0,2.9,48,0.00,,,0.00,WUHU216HW,2013-06-03 22:48:00,
2013-06-03 18:53:00,83.1,61.3,30.07,WSW,248,0.0,2.9,48,0.00,,,0.00,WUHU216HW,2013-06-03 22:53:00,
2013-06-03 18:58:00,82.5,60.8,30.08,WSW,248,0.0,0.0,48,0.00,,,0.00,WUHU216HW,2013-06-03 22:58:00,
2013-06-03 19:03:00,81.3,60.3,30.08,WSW,248,0.0,0.0,48,0.00,,,0.00,WUHU216HW,2013-06-03 23:03:00,
2013-06-03 19:08:00,80.7,60.4,30.08,WNW,293,0.0,0.0,50,0.00,,,0.00,WUHU216HW,2013-06-03 23:08:00,
2013-06-03 19:13:00,80.2,59.9,30.08,North,0,0.0,0.0,50,0.00,,,0.00,WUHU216HW,2013-06-03 23:13:00,
2013-06-03 19:18:00,79.3,60.1,30.08,NNW,338,0.0,0.0,52,0.00,,,0.00,WUHU216HW,2013-06-03 23:18:00,
2013-06-03 19:23:00,78.6,60.0,30.09,NNW,338,0.0,0.0,53,0.00,,,0.00,WUHU216HW,2013-06-03 23:23:00,
2013-06-03 19:28:00,78.0,60.3,30.09,NW,315,0.0,0.0,54,0.00,,,0.00,WUHU216HW,2013-06-03 23:28:00,
2013-06-03 19:33:00,78.0,60.5,30.09,NW,315,0.0,0.0,55,0.00,,,0.00,WUHU216HW,2013-06-03 23:33:00,
2013-06-03 19:38:00,77.5,60.5,30.09,WNW,293,0.0,0.0,56,0.00,,,0.00,WUHU216HW,2013-06-03 23:38:00,
2013-06-03 19:43:00,77.1,60.3,30.09,WNW,293,0.0,0.0,56,0.00,,,0.00,WUHU216HW,2013-06-03 23:43:00,
2013-06-03 19:48:00,77.0,60.5,30.09,WSW,248,0.0,0.0,57,0.00,,,0.00,WUHU216HW,2013-06-03 23:48:00,
2013-06-03 19:53:00,76.6,60.7,30.10,WSW,248,0.0,0.0,58,0.00,,,0.00,WUHU216HW,2013-06-03 23:53:00,
2013-06-03 19:58:00,76.2,60.4,30.10,WSW,248,0.0,0.0,58,0.00,,,0.00,WUHU216HW,2013-06-03 23:58:00,
2013-06-03 20:03:00,75.7,59.9,30.10,WSW,248,0.0,0.0,58,0.00,,,0.00,WUHU216HW,2013-06-04 00:03:00,
2013-06-03 20:08:00,75.3,60.0,30.11,WSW,248,0.0,0.0,59,0.00,,,0.00,WUHU216HW,2013-06-04 00:08:00,
2013-06-03 20:13:00,74.8,60.0,30.11,WSW,248,0.0,0.0,60,0.00,,,0.00,WUHU216HW,2013-06-04 00:13:00,
2013-06-03 20:18:00,74.4,60.1,30.11,WSW,248,0.0,0.0,61,0.00,,,0.00,WUHU216HW,2013-06-04 00:18:00,
2013-06-03 20:23:00,74.3,59.9,30.11,WSW,248,0.0,0.0,61,0.00,,,0.00,WUHU216HW,2013-06-04 00:23:00,
2013-06-03 20:28:00,73.9,60.0,30.11,WSW,248,0.0,0.0,62,0.00,,,0.00,WUHU216HW,2013-06-04 00:28:00,
2013-06-03 20:33:00,73.7,59.8,30.11,WSW,248,0.0,0.0,62,0.00,,,0.00,WUHU216HW,2013-06-04 00:33:00,
2013-06-03 20:38:00,73.5,59.7,30.11,WSW,248,0.0,0.0,62,0.00,,,0.00,WUHU216HW,2013-06-04 00:38:00,
2013-06-03 20:43:00,73.2,59.6,30.11,WSW,248,0.0,0.0,63,0.00,,,0.00,WUHU216HW,2013-06-04 00:43:00,
2013-06-03 20:48:00,72.8,59.4,30.11,WSW,248,0.0,0.0,63,0.00,,,0.00,WUHU216HW,2013-06-04 00:48:00,
2013-06-03 20:53:00,72.5,59.1,30.11,WSW,248,0.0,0.0,63,0.00,,,0.00,WUHU216HW,2013-06-04 00:53:00,
2013-06-03 20:58:00,72.1,59.2,30.12,WSW,248,0.0,0.0,64,0.00,,,0.00,WUHU216HW,2013-06-04 00:58:00,
2013-06-03 21:03:00,71.6,59.6,30.12,WSW,248,0.0,0.0,66,0.00,,,0.00,WUHU216HW,2013-06-04 01:03:00,
2013-06-03 21:08:00,71.2,59.2,30.11,WSW,248,0.0,0.0,66,0.00,,,0.00,WUHU216HW,2013-06-04 01:08:00,
2013-06-03 21:13:00,70.7,59.1,30.12,WSW,248,0.0,0.0,67,0.00,,,0.00,WUHU216HW,2013-06-04 01:13:00,
2013-06-03 21:18:00,70.5,58.9,30.12,WSW,248,0.0,0.0,67,0.00,,,0.00,WUHU216HW,2013-06-04 01:18:00,
2013-06-03 21:23:00,70.3,58.8,30.12,WSW,248,0.0,0.0,67,0.00,,,0.00,WUHU216HW,2013-06-04 01:23:00,
2013-06-03 21:28:00,70.1,58.6,30.12,WSW,248,0.0,0.0,67,0.00,,,0.00,WUHU216HW,2013-06-04 01:28:00,
2013-06-03 21:33:00,69.9,58.4,30.12,WSW,248,0.0,0.0,67,0.00,,,0.00,WUHU216HW,2013-06-04 01:33:00,
2013-06-03 21:38:00,69.6,58.5,30.13,WSW,248,0.0,0.0,68,0.00,,,0.00,WUHU216HW,2013-06-04 01:38:00,
2013-06-03 21:43:00,69.4,58.3,30.13,WSW,248,0.0,0.0,68,0.00,,,0.00,WUHU216HW,2013-06-04 01:43:00,
2013-06-03 21:48:00,69.0,58.4,30.13,WSW,248,0.0,0.0,69,0.00,,,0.00,WUHU216HW,2013-06-04 01:48:00,
2013-06-03 21:53:00,68.7,58.1,30.13,WSW,248,0.0,0.0,69,0.00,,,0.00,WUHU216HW,2013-06-04 01:53:00,
2013-06-03 21:58:00,68.5,58.4,30.13,WSW,248,0.0,0.0,70,0.00,,,0.00,WUHU216HW,2013-06-04 01:58:00,
2013-06-03 22:03:00,68.3,58.2,30.14,WSW,248,0.0,0.0,69,0.00,,,0.00,WUHU216HW,2013-06-04 02:03:00,
2013-06-03 22:08:00,68.1,58.0,30.15,WSW,248,0.0,0.0,70,0.00,,,0.00,WUHU216HW,2013-06-04 02:08:00,
2013-06-03 22:13:00,67.8,58.1,30.15,WSW,248,0.0,0.0,71,0.00,,,0.00,WUHU216HW,2013-06-04 02:13:00,
2013-06-03 22:18:00,67.6,57.9,30.15,WSW,248,0.0,0.0,71,0.00,,,0.00,WUHU216HW,2013-06-04 02:18:00,
2013-06-03 22:23:00,67.2,57.9,30.15,WSW,248,0.0,0.0,72,0.00,,,0.00,WUHU216HW,2013-06-04 02:23:00,
2013-06-03 22:28:00,66.9,57.5,30.15,WSW,248,0.0,0.0,72,0.00,,,0.00,WUHU216HW,2013-06-04 02:28:00,
2013-06-03 22:34:00,66.7,57.7,30.16,WSW,248,0.0,0.0,73,0.00,,,0.00,WUHU216HW,2013-06-04 02:34:00,
2013-06-03 22:39:00,66.5,57.6,30.16,WSW,248,0.0,0.0,73,0.00,,,0.00,WUHU216HW,2013-06-04 02:39:00,
2013-06-03 22:44:00,66.3,57.4,30.16,WSW,248,0.0,0.0,73,0.00,,,0.00,WUHU216HW,2013-06-04 02:44:00,
2013-06-03 22:49:00,66.0,57.0,30.16,WSW,248,0.0,0.0,73,0.00,,,0.00,WUHU216HW,2013-06-04 02:49:00,
2013-06-03 22:54:00,66.0,57.4,30.17,WSW,248,0.0,0.0,74,0.00,,,0.00,WUHU216HW,2013-06-04 02:54:00,
2013-06-03 22:59:00,65.8,57.2,30.16,WSW,248,0.0,0.0,74,0.00,,,0.00,WUHU216HW,2013-06-04 02:59:00,
2013-06-03 23:04:00,65.4,56.9,30.16,WSW,248,0.0,0.0,74,0.00,,,0.00,WUHU216HW,2013-06-04 03:04:00,
2013-06-03 23:09:00,65.3,57.1,30.16,WSW,248,0.0,0.0,75,0.00,,,0.00,WUHU216HW,2013-06-04 03:09:00,
2013-06-03 23:14:00,65.1,56.9,30.16,WSW,248,0.0,0.0,75,0.00,,,0.00,WUHU216HW,2013-06-04 03:14:00,
2013-06-03 23:19:00,64.9,56.8,30.16,WSW,248,0.0,0.0,75,0.00,,,0.00,WUHU216HW,2013-06-04 03:19:00,
2013-06-03 23:24:00,64.7,56.6,30.16,WSW,248,0.0,0.0,75,0.00,,,0.00,WUHU216HW,2013-06-04 03:24:00,
2013-06-03 23:29:00,64.5,56.8,30.16,WSW,248,0.0,0.0,76,0.00,,,0.00,WUHU216HW,2013-06-04 03:29:00,
2013-06-03 23:34:00,64.4,56.6,30.16,WSW,248,0.0,0.0,76,0.00,,,0.00,WUHU216HW,2013-06-04 03:34:00,
2013-06-03 23:39:00,64.0,56.3,30.16,WSW,248,0.0,0.0,76,0.00,,,0.00,WUHU216HW,2013-06-04 03:39:00,
2013-06-03 23:44:00,63.6,55.9,30.16,WSW,248,0.0,0.0,76,0.00,,,0.00,WUHU216HW,2013-06-04 03:44:00,
2013-06-03 23:49:00,63.6,56.3,30.17,WSW,248,0.0,0.0,77,0.00,,,0.00,WUHU216HW,2013-06-04 03:49:00,
2013-06-03 23:54:00,63.6,56.3,30.16,WSW,248,0.0,0.0,77,0.00,,,0.00,WUHU216HW,2013-06-04 03:54:00,
2013-06-03 23:59:00,63.3,56.3,30.16,WSW,248,0.0,0.0,78,0.00,,,0.00,WUHU216HW,2013-06-04 03:59:00,